Starlink 11584

operational
NORAD ID: 63106 Int'l Des: 2025-039 Owner: SPXS Country: US Constellation: starlink
LEOCIRCULAR

关于 Starlink 11584

正在加载描述...

实时位置

正在加载3D地球...

即将过境

高度历史

Altitude vs Time

uPlot chart will show altitude changes over time

两行轨道根数

1 63106U 25039C 26034.55988468 .00246052 00000-0 18654-2 0 9998
2 63106 42.9994 82.9359 0001360 256.9559 103.1157 15.70832331 54248
Epoch: Feb 3, 2026 • Age: 7 hours

当前状态

高度 368.0 km
速度 7.69 km/s
星下点 -41.98°S, 108.8°W
发射日期 Feb 27, 2025
运行时间 0.9 years
类型 internet

技术详情

分类 Payload
质量 960.00 kg
干质量 910.00 kg
总质量 960.00 kg
长度 0.30 m
直径 4.10 m
跨度 29.00 m
形状 Box + pan
制造商 SPXS
平台类型 Starlink V2MD
阶段状态 In Orbit
所有者/国家 SPXS/US

大型星座

Loading constellations...